Location: 433rd Scouts Home(Lloyd Manor Park, Etobicoke )
(43.6722°N, 79.5542°W)
Time: 06:04:33
(UTC-04:00)

N. Korean satellite - Pass Details

Date: 27 September 2021
Orbit: 450 x 495 km, 97.3° (Epoch: 15 October)

Event Time Altitude Azimuth Distance (km) Brightness Sun altitude
Rises 06:25:08 0° 15° (NNE) 2,533 10.5 -9.2°
Reaches altitude 10° 06:27:12 10° 19° (NNE) 1,658 9.6 -8.8°
Maximum altitude 06:30:44 60° 100° (E) 559 7.2 -8.2°
Drops below altitude 10° 06:34:17 10° 181° (S) 1,668 9.2 -7.5°
Sets 06:36:23 0° 185° (S) 2,551 10.1 -7.2°
